Flag for San Marino Weather past 2 weeks in San Marino, San Marino

Now
41 °F

Light rain. Fog.


Feels Like: 30 °F
Forecast: 30 / 35 °F
Wind: 29 mph from Northeast

Location: Cervia Airport

Current Time: Mar 5, 2015 at 4:11:30 AM

Latest Report: Mar 5, 2015 at 2:55 AM


Visibility: 2 mi

Pressure: 30.09 "Hg

Humidity: 81%

Dew point: 36 °F

Location of San MarinoLocation

Historic Weather in San Marino — Graph

°F

San Marino temperature yesterday

Maximum temperature yesterday: 52 °F (at 12:55 PM)
Minimum temperature yesterday: 43 °F (at 1:55 AM)
Average temperature yesterday: 46 °F

Past Weeks' High & Low Weather Summary

 TemperatureHumidityPressure
High61 °F (Mar 2, 12:55 PM)94% (Mar 2, 1:55 PM)30.60 "Hg (Mar 2, 1:55 PM)
Low30 °F (Feb 19, 4:55 AM)46% (Feb 18, 4:55 PM)29.45 "Hg (Feb 22, 5:55 AM)
Average45 °F84%29.98 "Hg
* Reported Feb 18 2:55 AM — Mar 5 2:55 AM, San Marino, Weather by CustomWeather, © 2015

Note: Actual official high and low records may vary slightly from our data, if they occured in-between our weather recording intervals... More about our weather records

Advertising

San Marino weather history for previous 24 hours

 ConditionsComfort  
Time TempWeatherWind HumidityBarometerVisibility
2:55 AM
Thu, Mar 5
41 °FLight rain. Fog.29 mph81%30.09 "Hg2 mi
1:55 AM43 °FLight rain. Fog.30 mph81%30.07 "Hg2 mi
12:55 AM41 °FLight rain. Fog.33 mph87%30.04 "Hg2 mi
11:55 PM
Wed, Mar 4
43 °FLight rain. Fog.35 mph87%30.01 "Hg2 mi
10:55 PM45 °FLight rain. Fog.28 mph87%29.98 "Hg2 mi
9:55 PM46 °FLight rain. Fog.20 mph82%29.98 "Hg2 mi
8:55 PM46 °FLight rain. Fog.9 mph87%30.01 "Hg1 mi
7:55 PM46 °FLight rain. Fog.5 mph82%30.01 "Hg2 mi
6:55 PM46 °FRain. Fog.3 mph87%30.01 "Hg1 mi
5:55 PM48 °FLight rain. Fog.5 mph82%30.01 "Hg1 mi
4:55 PM48 °FLight rain. Fog.5 mph82%30.04 "Hg1 mi
3:55 PM48 °FLight rain. Fog.3 mph87%30.04 "Hg1 mi
2:55 PM50 °FLight rain. Fog.5 mph82%30.07 "Hg1 mi
1:55 PM50 °FFog.5 mph82%30.07 "Hg2 mi
12:55 PM52 °FFog.3 mph82%30.09 "Hg3 mi
11:55 AM50 °FFog.7 mph88%30.12 "Hg2 mi
10:55 AM50 °FFog.6 mph82%30.12 "Hg2 mi
9:55 AM46 °FFog.6 mph82%30.15 "Hg1 mi
8:55 AM45 °FFog.9 mph87%30.18 "Hg1 mi
7:55 AM43 °FFog.9 mph87%30.15 "Hg0 mi
6:55 AM43 °FFog.7 mph81%30.15 "Hg0 mi
5:55 AM43 °FFog.5 mph87%30.18 "Hg0 mi
4:55 AM43 °FFog.3 mph81%30.18 "Hg0 mi
Weather by CustomWeather, © 2015

See weather overviewHow to use our weather pages